Weather History for Destin, FL

Change the Weather History Date:

Monday, February 18, 2013

  Actual Average Record
Temperature  
Mean Temperature 56 °F -  
Max Temperature 62 °F 62 °F 71 °F (2000)
Min Temperature 51 °F 47 °F 34 °F (2007)
Degree Days  
Heating Degree Days 9    
Growing Degree Days 6 (Base 50)    
Moisture  
Dew Point 40 °F    
Average Humidity 52    
Maximum Humidity 67    
Minimum Humidity 38    
Precipitation  
Precipitation 0.00 in - - ()
Sea Level Pressure  
Sea Level Pressure 30.25 in    
Wind  
Wind Speed 11 mph (SE)    
Max Wind Speed 20 mph    
Max Gust Speed 28 mph    
Visibility 10 miles    
Events      
Averages and records for this station are not official NWS values.
T = Trace of Precipitation, MM = Missing Value Source: NWS Daily Summary

Daily Weather History Graph

Daily Weather History Graph

Search for Another Location

Airport:

Trip Planner

Search our weather history database for the weather conditions in past years. The results will help you decide how hot, cold, wet, or windy it might be!

Date:

Astronomy

Feb. 18, 2013 Rise Set
Actual Time 6:23 AM CST 5:36 PM CST
Civil Twilight 5:58 AM CST 6:01 PM CST
Nautical Twilight 5:30 AM CST 6:29 PM CST
Astronomical Twilight 5:02 AM CST 6:57 PM CST
Moon 11:34 AM CST (2/18) 12:51 AM CST (2/18)
Length of Visible Light 12h 02m
Length of Day
11h 13m
First Quarter, 58% of the Moon is Illuminated
Feb 18
First Quarter
Feb 25
Full
Mar 4
Last Quarter
Mar 11
New
Mar 19
First Quarter

Hourly Weather History & Observations

Time (CST) Temp. Dew Point Humidity Pressure Visibility Wind Dir Wind Speed Gust Speed Precip Events Conditions
12:53 AM 52.0 °F 27.0 °F 38% 30.31 in 10.0 mi SE 4.6 mph - N/A   Clear
1:53 AM 51.1 °F 28.0 °F 41% 30.29 in 10.0 mi SSE 5.8 mph - N/A   Clear
2:53 AM 53.1 °F 30.9 °F 43% 30.28 in 10.0 mi SSE 6.9 mph - N/A   Clear
3:53 AM 54.0 °F 34.0 °F 47% 30.28 in 10.0 mi SSE 5.8 mph - N/A   Clear
4:53 AM 55.0 °F 34.0 °F 45% 30.29 in 10.0 mi SSE 9.2 mph - N/A   Clear
5:53 AM 55.0 °F 34.0 °F 45% 30.30 in 10.0 mi SSE 9.2 mph - N/A   Clear
6:53 AM 55.9 °F 35.1 °F 45% 30.30 in 10.0 mi SE 10.4 mph - N/A   Clear
7:53 AM 57.9 °F 36.0 °F 44% 30.32 in 10.0 mi SE 11.5 mph - N/A   Clear
8:53 AM 59.0 °F 39.0 °F 48% 30.33 in 10.0 mi SE 15.0 mph - N/A   Clear
9:53 AM 60.1 °F 39.0 °F 46% 30.33 in 10.0 mi SE 12.7 mph 21.9 mph N/A   Clear
10:53 AM 61.0 °F 39.9 °F 46% 30.33 in 10.0 mi SE 15.0 mph 21.9 mph N/A   Clear
11:53 AM 61.0 °F 41.0 °F 48% 30.32 in 10.0 mi SE 16.1 mph - N/A   Clear
12:53 PM 61.0 °F 39.9 °F 46% 30.29 in 10.0 mi SE 16.1 mph 24.2 mph N/A   Partly Cloudy
1:53 PM 61.0 °F 39.9 °F 46% 30.28 in 10.0 mi SE 16.1 mph 21.9 mph N/A   Partly Cloudy
2:53 PM 59.0 °F 41.0 °F 51% 30.26 in 10.0 mi SE 11.5 mph - N/A   Overcast
3:53 PM 59.0 °F 43.0 °F 55% 30.23 in 10.0 mi SE 19.6 mph 26.5 mph N/A   Clear
4:53 PM 57.0 °F 43.0 °F 59% 30.20 in 10.0 mi SE 17.3 mph 25.3 mph N/A   Clear
5:53 PM 57.0 °F 44.1 °F 62% 30.20 in 10.0 mi SE 17.3 mph 26.5 mph N/A   Partly Cloudy
6:53 PM 57.9 °F 44.1 °F 60% 30.19 in 10.0 mi SE 18.4 mph 26.5 mph N/A   Scattered Clouds
7:53 PM 57.9 °F 45.0 °F 62% 30.18 in 10.0 mi SE 17.3 mph 26.5 mph N/A   Partly Cloudy
8:53 PM 59.0 °F 46.9 °F 64% 30.17 in 10.0 mi SE 15.0 mph 26.5 mph N/A   Scattered Clouds
9:53 PM 60.1 °F 48.0 °F 64% 30.16 in 10.0 mi SSE 13.8 mph 27.6 mph N/A   Scattered Clouds
10:53 PM 61.0 °F 50.0 °F 67% 30.12 in 10.0 mi SSE 16.1 mph 26.5 mph N/A   Mostly Cloudy
11:53 PM 62.1 °F 51.1 °F 67% 30.10 in 10.0 mi SSE 16.1 mph 24.2 mph N/A   Mostly Cloudy